Location: Newark
(32.3788°N, 35.6119°E)
Time: 11:10:50
(UTC+00:00)

Hubble Space Telescope - Visible Passes

Search period start: 23 July 2019 00:00
Search period end: 02 August 2019 00:00
Orbit: 536 x 540 km, 28.5° (Epoch: 22 July)

Date Brightness Start Highest point End Pass type
(mag) Time Alt. Az. Time Alt. Az. Time Alt. Az.
27 Jul 2.0 02:20:44 10° SW 02:24:20 29° SSE 02:27:56 10° ESE visible
28 Jul 3.4 00:34:43 11° SE 00:34:43 11° SE 00:35:02 10° SE visible
28 Jul 1.8 02:10:03 10° SW 02:13:44 33° SSE 02:17:29 10° ESE visible
29 Jul 3.4 00:24:41 11° ESE 00:24:41 11° ESE 00:25:02 10° ESE visible
29 Jul 1.6 02:00:01 14° SW 02:03:09 38° S 02:07:00 10° E visible
30 Jul 3.5 00:14:39 11° ESE 00:14:39 11° ESE 00:14:50 10° ESE visible
30 Jul 1.4 01:49:58 19° SW 01:52:35 42° S 01:56:30 10° E visible
31 Jul 1.2 01:39:58 24° SW 01:42:01 45° S 01:45:59 10° E visible
01 Aug 1.1 01:29:58 32° SW 01:31:27 48° S 01:35:26 10° ESE visible
